Location: Grasslands National Park East Block
(49.0708°N, 106.5295°W)
Time: 05:49:06
(UTC-06:00)

Vanguard 1 - Pass Details

Date: 24 September 2019
Orbit: 653 x 3830 km, 34.2° (Epoch: 18 October)

Event Time Altitude Azimuth Distance (km) Brightness Sun altitude
Rises 04:17:32 0° 252° (WSW) 7,844 - -25.4°
Reaches altitude 10° 04:23:00 10° 248° (WSW) 6,916 - -24.6°
Exits shadow 04:32:06 29° 236° (WSW) 5,419 13.2 -23.3°
Maximum altitude 04:44:47 51° 182° (S) 3,964 12.8 -21.5°
Drops below altitude 10° 05:00:20 10° 113° (ESE) 5,115 14.3 -19.2°
Sets 05:03:40 0° 108° (ESE) 5,766 14.8 -18.7°
